TimeMDT,TemperatureF,Dew PointF,Humidity,Sea Level PressureIn,VisibilityMPH,Wind Direction,Wind SpeedMPH,Gust SpeedMPH,PrecipitationIn,Events,Conditions,WindDirDegrees,DateUTC
12:53 AM,46.0,18.0,33,29.82,10.0,Calm,Calm,-,N/A,,Clear,0,2012-10-07 06:53:00
1:53 AM,50.0,24.1,36,29.80,10.0,Variable,3.5,-,N/A,,Clear,0,2012-10-07 07:53:00
2:53 AM,50.0,26.1,39,29.80,10.0,South,4.6,-,N/A,,Clear,180,2012-10-07 08:53:00
3:53 AM,50.0,25.0,38,29.79,10.0,WSW,4.6,-,N/A,,Clear,250,2012-10-07 09:53:00
4:53 AM,46.9,25.0,42,29.82,10.0,Calm,Calm,-,N/A,,Clear,0,2012-10-07 10:53:00
5:53 AM,41.0,19.9,43,29.87,10.0,Calm,Calm,-,N/A,,Clear,0,2012-10-07 11:53:00
7:53 AM,37.9,18.0,45,29.97,10.0,Calm,Calm,-,N/A,,Clear,0,2012-10-07 13:53:00
8:53 AM,50.0,15.1,25,29.97,10.0,Variable,3.5,-,N/A,,Clear,0,2012-10-07 14:53:00
9:53 AM,57.0,3.9,12,29.96,10.0,NNE,8.1,-,N/A,,Clear,20,2012-10-07 15:53:00
10:53 AM,61.0,3.0,10,29.97,10.0,NNE,8.1,-,N/A,,Clear,20,2012-10-07 16:53:00
11:53 AM,64.0,3.0,9,29.93,10.0,North,8.1,-,N/A,,Clear,350,2012-10-07 17:53:00
12:53 PM,66.0,3.0,8,29.91,10.0,West,9.2,19.6,N/A,,Clear,260,2012-10-07 18:53:00
1:53 PM,66.9,-4.0,6,29.87,10.0,North,13.8,20.7,N/A,,Clear,360,2012-10-07 19:53:00
2:53 PM,68.0,-4.0,6,29.86,10.0,WNW,9.2,24.2,N/A,,Clear,300,2012-10-07 20:53:00
3:53 PM,66.9,-4.0,6,29.86,10.0,West,10.4,21.9,N/A,,Clear,260,2012-10-07 21:53:00
4:53 PM,66.0,-6.0,5,29.88,10.0,NW,8.1,-,N/A,,Clear,310,2012-10-07 22:53:00
5:53 PM,64.9,-2.9,7,29.91,10.0,West,9.2,-,N/A,,Clear,280,2012-10-07 23:53:00
6:53 PM,57.9,3.0,11,29.97,10.0,Calm,Calm,-,N/A,,Clear,0,2012-10-08 00:53:00
7:53 PM,52.0,3.0,14,30.01,10.0,Calm,Calm,-,N/A,,Clear,0,2012-10-08 01:53:00
8:53 PM,43.0,3.0,19,30.01,10.0,Calm,Calm,-,N/A,,Clear,0,2012-10-08 02:53:00
9:53 PM,42.1,3.9,21,29.99,10.0,Calm,Calm,-,N/A,,Clear,0,2012-10-08 03:53:00
10:53 PM,36.0,3.0,25,30.01,10.0,SSW,4.6,-,N/A,,Clear,210,2012-10-08 04:53:00
11:53 PM,39.0,1.9,21,29.99,10.0,Calm,Calm,-,N/A,,Clear,0,2012-10-08 05:53:00